Voltar ao catálogo

KUIPER-00611

AtivoComunicaçõesLEO
NORAD 69771·PAYLOAD·🇺🇸 United States

Lançado Jul 2, 2026 de Cape Canaveral Space Force Station

Loading…

Próximas Passagens (próximas 24 horas)

TLE

AtualizadoSource: CelesTrak SupGP

Época: Sep 14, 2026, 20:35 UTC

1 69771C 26151J   26257.85810185  .00002039  00000+0  26688-3 0  2576
2 69771  51.8969 254.1282 0000657  60.1348 149.6839 14.79923231    16

Acompanhe KUIPER-00611 em tempo real com AllMySat

Download on the App Store